Temperature
10 12 13 13 12 13 13 13 13 13 11 11 12 12 13 12 11 10 10 10 9 9 9 9 9 8 9 9 9 9 9 8 8 8 8 8 8 8 8 8 8 8 8 8
12 12 12 11 11 11 12 12 12 12 10 11 11 12 12 12 11 10 10 10 9 9 9 8 8 8 8 8 8 8 8 8 8 8 8 8 8 8 8 8 8 8 8 8
12 11 10 10 10 11 11 12 12 12 10 10 10 12 13 12 10 10 9 9 9 8 8 8 8 8 8 8 8 8 8 8 8 8 8 8 7 7 7 7 7 7 7 7
11 10 10 10 10 11 12 11 10 10 11 12 10 12 14 12 11 11 10 9 9 8 8 8 8 7 7 7 7 7 7 7 7 7 7 7 7 7 7 7 7 7 7 7
10 9 9 10 10 10 11 9 10 10 10 11 10 11 14 12 11 12 11 10 9 8 8 8 8 7 7 7 7 7 7 7 7 7 7 7 7 7 7 7 7 7 7 7
9 9 9 10 9 9 9 9 9 9 10 10 11 11 13 13 12 12 11 10 9 8 7 7 7 7 7 7 7 7 7 7 7 7 7 7 7 7 6 6 6 6 6 6
9 9 8 8 9 8 9 11 11 11 11 12 10 10 12 13 12 11 11 10 9 8 7 7 7 7 7 7 7 7 7 7 7 7 6 6 6 6 6 6 6 6 6 6
10 10 9 8 9 10 10 11 12 12 13 13 9 10 13 11 10 9 9 9 8 8 7 7 7 7 7 7 7 7 7 7 6 6 6 6 6 6 6 6 6 6 6 6
10 10 8 8 8 9 9 10 10 11 10 11 12 12 12 10 10 9 9 8 8 7 7 7 7 7 7 7 7 7 6 6 6 6 6 6 6 6 6 6 6 6 6 5
9 9 8 7 8 7 9 9 9 10 10 11 12 12 12 11 11 10 10 9 8 7 7 7 7 7 7 7 6 6 6 6 6 6 6 6 6 5 5 5 5 5 5 5
8 8 7 7 8 9 7 8 9 10 10 11 12 13 12 12 11 10 10 9 8 7 7 7 7 7 6 6 6 6 6 6 6 6 6 5 5 5 5 5 5 5 5 5
7 8 7 8 7 7 8 8 9 9 9 9 11 12 11 10 10 9 9 8 7 7 6 6 6 6 6 6 6 6 6 6 6 5 5 5 5 5 5 5 5 5 5 5
6 7 7 8 7 6 6 7 7 8 8 9 10 12 10 9 8 8 7 7 7 6 6 6 6 6 6 6 6 5 5 5 5 5 5 5 5 5 5 4 4 4 4 4
6 7 7 8 9 7 6 6 6 7 7 8 9 11 11 10 9 8 7 7 6 6 6 6 6 6 5 5 5 5 5 5 5 5 5 5 5 5 4 4 4 4 4 4
5 6 6 6 6 6 6 6 6 6 8 8 10 10 10 10 9 8 7 6 6 5 5 5 5 5 5 5 5 5 5 5 5 5 5 5 5 4 4 4 4 4 4 3
5 5 5 4 5 5 5 6 6 6 7 7 8 8 9 8 7 6 6 5 5 5 5 5 5 5 5 5 5 5 5 5 5 5 5 4 4 4 4 4 4 3 3 3
4 4 4 5 5 5 5 6 6 6 6 7 7 8 8 7 6 6 5 5 5 5 5 4 5 5 5 5 5 5 5 4 4 4 4 4 4 4 3 3 3 3 3 3
3 4 4 4 4 4 7 6 6 6 6 6 6 7 6 6 5 5 4 4 4 4 4 4 4 4 5 5 5 5 4 4 4 4 4 4 4 3 3 3 3 3 2 2
3 4 3 3 4 6 6 5 4 5 5 6 5 5 5 4 4 4 4 4 4 4 4 4 4 4 5 4 4 4 4 4 4 4 3 3 3 3 3 3 2 2 2 2
2 3 3 3 4 5 7 5 4 5 5 5 4 4 4 3 5 6 4 4 4 4 4 4 4 4 4 4 4 4 4 4 3 3 3 3 3 2 2 2 2 2 2 2
2 2 2 3 4 5 5 3 4 5 6 4 4 3 3 3 4 4 4 3 3 3 4 4 4 4 4 4 3 3 3 3 3 3 3 2 2 2 2 2 1 1 1 1
2 2 2 3 3 4 4 3 4 5 4 3 3 3 2 2 2 3 3 3 3 3 3 3 3 3 3 3 3 3 3 3 3 2 2 2 2 1 1 1 1 1 1 1
3 3 4 4 4 4 3 3 3 3 3 3 3 3 2 2 2 2 2 2 2 2 2 2 2 2 2 2 2 2 2 2 2 2 2 1 1 1 1 1 1 0 0 0
2 1 2 2 3 3 2 2 2 2 2 2 2 2 2 2 2 2 2 1 2 2 2 2 2 2 2 2 2 2 2 2 2 1 1 1 1 0 0 0 0 -0 -0 -0
2 1 1 1 2 2 2 2 2 2 1 1 1 1 1 1 1 1 1 1 1 1 1 1 1 1 1 1 1 1 1 1 1 1 1 0 -0 -0 -0 -0 -0 -1 -1 -1
-0 0 1 1 2 1 1 1 1 1 1 1 1 1 1 1 1 1 1 1 1 1 1 1 1 1 1 1 1 1 1 1 0 0 -0 -0 -0 -1 -1 -1 -1 -1 -1 -1
Wind_Speed
1 3 6 7 7 3 3 5 6 4 2 6 11 14 13 10 9 10 9 8 7 6 5 3 2 2 2 3 3 2 2 2 2 2 2 2 2 2 2 2 2 3 4 4
3 6 6 3 4 4 5 7 7 4 3 5 9 15 13 10 10 9 8 8 7 5 4 3 2 2 2 3 3 3 2 2 2 2 2 2 2 2 2 2 2 3 4 4
6 1 3 5 6 6 7 8 7 5 3 4 7 9 8 6 7 7 7 7 6 5 5 3 2 2 2 3 3 3 3 3 3 2 2 2 1 1 2 2 2 2 3 4
4 3 4 5 6 7 7 6 6 6 5 4 3 6 5 6 7 8 7 6 6 5 5 4 3 3 3 3 3 3 3 3 3 3 3 3 3 3 3 2 2 2 3 4
3 3 4 6 5 6 3 1 4 5 6 6 5 6 6 4 7 8 7 7 6 5 4 4 3 3 3 3 3 3 3 3 3 3 4 4 3 3 2 2 2 2 2 3
4 2 3 2 0 4 4 3 2 3 4 6 6 7 6 5 6 6 6 6 5 4 4 3 3 3 3 2 2 2 3 3 3 3 4 4 4 3 3 3 3 2 2 2
2 3 2 2 2 4 4 4 3 4 5 6 3 6 8 4 5 5 5 5 5 4 4 4 3 3 3 3 3 3 3 3 3 4 4 4 4 4 4 4 3 3 2 2
4 4 4 4 4 5 6 6 4 5 5 4 4 7 5 2 3 4 4 4 4 3 4 4 4 4 4 3 3 3 3 3 4 4 4 4 4 3 3 4 3 4 3 3
4 3 0 2 2 4 5 6 3 3 4 6 6 6 6 3 4 4 4 4 4 4 4 4 4 4 4 4 4 4 4 4 4 4 4 4 4 4 4 4 4 3 3 3
3 4 2 0 1 1 3 3 4 5 4 7 7 7 5 5 6 4 3 4 4 4 4 4 4 4 4 4 4 4 4 4 4 4 4 4 4 4 4 4 4 3 4 4
2 3 2 3 6 6 4 4 5 5 5 6 7 5 2 5 4 4 3 3 3 4 5 5 4 4 3 3 3 3 3 3 4 4 4 4 4 4 4 4 4 4 3 4
2 3 4 6 3 4 7 6 6 5 6 6 7 7 1 2 2 2 3 4 4 5 5 5 4 3 3 3 3 3 3 3 4 4 4 4 4 4 4 4 4 4 4 4
2 3 3 3 3 2 4 4 5 3 3 7 9 8 2 1 4 5 6 6 5 5 5 4 4 4 4 4 3 3 3 3 3 3 3 4 4 4 4 4 3 4 4 4
3 5 8 10 6 3 6 8 8 7 7 9 13 15 11 9 9 9 8 7 7 6 5 5 4 4 4 4 3 3 3 3 3 3 4 4 4 4 4 3 3 3 3 3
3 6 9 11 10 8 11 12 12 14 14 14 16 17 17 13 11 10 8 7 7 6 5 5 5 4 4 4 3 3 3 3 3 3 4 4 4 4 3 3 3 3 3 3
3 5 6 9 9 10 13 14 16 17 17 19 20 20 15 11 8 8 8 6 7 7 7 6 5 5 4 4 4 4 3 3 3 4 4 3 3 3 3 4 4 4 3 3
5 5 5 7 6 7 11 12 13 10 11 12 15 14 10 8 9 8 7 7 8 8 7 6 5 5 5 5 4 4 4 3 3 3 3 4 4 4 4 4 3 4 4 4
8 7 5 5 5 10 5 1 6 9 10 10 11 11 11 10 9 8 7 8 8 8 7 6 5 5 4 3 3 3 3 3 3 3 3 3 3 4 3 3 4 3 3 3
11 9 5 5 8 11 7 3 3 7 8 8 10 11 10 8 7 8 7 7 7 7 6 6 5 4 3 2 2 2 2 3 3 3 3 3 3 3 4 4 4 3 3 3
6 9 7 6 8 8 5 2 2 3 7 4 5 9 8 5 6 7 5 6 7 6 4 4 3 2 2 2 2 3 3 3 3 3 3 3 3 3 4 4 3 3 3 3
3 6 10 11 11 9 4 1 1 4 5 6 6 7 7 7 8 8 7 7 6 5 4 3 2 2 2 2 3 3 3 3 3 2 2 2 2 3 3 3 3 3 3 3
7 7 8 8 10 10 1 1 4 6 7 7 7 7 8 9 10 9 8 7 5 4 3 2 2 2 2 2 3 3 3 2 1 2 2 1 1 1 2 2 2 2 2 2
9 9 7 8 9 6 4 7 8 8 9 9 8 9 8 10 11 10 9 7 5 4 2 2 2 1 1 2 3 3 2 1 2 2 1 1 1 1 1 2 2 1 2 2
7 6 8 10 12 11 10 10 10 10 11 11 10 10 9 10 10 9 8 6 5 3 2 2 2 2 2 2 2 2 1 2 2 2 1 1 1 1 0 0 1 1 2 2
8 6 9 13 13 12 11 11 11 12 11 11 11 10 10 10 10 9 7 6 5 3 3 2 3 3 2 2 2 1 1 2 2 1 1 0 0 0 0 1 1 2 2 3
9 10 10 12 11 11 14 13 13 13 13 12 11 10 10 9 9 8 6 5 4 4 3 3 3 3 2 2 2 1 1 2 2 1 1 1 1 0 1 1 1 2 2 3
Wind_Direction
153 195 208 208 216 247 220 229 244 245 222 246 253 263 264 254 245 247 247 248 251 255 266 274 278 287 298 293 283 276 267 258 241 227 219 217 217 219 214 208 200 191 186 182
190 229 236 207 197 206 222 237 251 258 240 256 274 273 267 250 238 239 242 243 244 251 262 273 284 299 301 296 289 278 260 241 228 233 234 229 219 220 224 223 200 196 193 190
222 215 163 182 191 209 229 237 248 260 278 248 285 274 240 227 226 234 238 240 240 241 245 256 276 291 297 293 285 270 266 251 233 228 217 199 193 207 215 223 210 206 194 189
232 233 209 211 220 221 239 234 239 245 257 258 270 286 249 225 229 228 228 230 233 236 239 245 262 286 293 286 280 270 267 258 237 216 211 209 215 221 224 217 209 202 193 186
223 197 205 223 231 215 227 184 218 236 247 265 236 254 266 214 236 229 221 223 226 228 231 243 256 269 281 282 278 272 263 255 237 218 213 212 221 224 216 200 192 190 186 181
251 233 235 231 217 196 154 138 155 210 233 251 227 230 265 219 226 219 213 216 220 224 231 246 260 271 278 282 275 272 259 252 234 218 214 211 214 212 203 203 195 187 183 180
243 216 202 183 161 165 193 204 229 228 227 245 183 230 256 246 219 222 224 221 226 227 231 244 259 265 271 273 268 262 255 246 228 213 209 213 214 210 205 202 199 189 187 193
233 236 200 206 221 204 205 224 235 254 260 265 205 238 257 250 233 241 249 244 238 238 242 247 252 254 257 256 253 246 242 239 223 210 207 207 209 211 211 210 204 199 197 199
235 242 71 239 252 202 191 216 259 265 277 271 250 254 274 231 230 232 239 240 247 246 256 264 260 255 251 247 241 234 231 232 220 207 204 205 208 211 209 209 205 203 198 197
248 255 252 262 190 237 258 188 186 215 244 258 260 253 245 206 214 215 235 255 262 263 266 273 266 254 250 250 247 237 230 224 219 208 204 207 209 209 206 203 203 204 203 198
251 239 252 233 220 218 190 203 221 226 245 252 264 259 220 220 209 213 244 277 279 279 278 277 275 260 248 247 247 246 239 229 220 219 211 205 205 206 204 205 205 201 200 200
243 241 250 252 274 283 236 227 208 230 240 239 258 265 106 228 224 258 287 298 299 293 287 282 275 256 240 240 245 248 251 238 225 221 217 207 201 198 200 206 207 198 197 200
213 222 257 260 211 191 230 223 226 261 252 236 246 256 128 258 283 291 296 296 295 293 290 286 274 254 238 235 238 244 248 247 233 213 208 201 197 197 202 207 204 195 193 195
245 234 242 255 278 251 258 252 236 227 237 248 248 263 268 279 286 288 289 286 285 284 280 279 272 259 242 237 236 238 240 241 230 209 203 204 202 199 201 202 198 193 190 191
232 251 257 269 277 266 260 253 238 234 239 250 261 266 276 283 283 281 281 281 283 285 282 275 268 258 243 237 239 239 237 237 228 210 208 212 206 198 197 192 193 192 194 199
249 255 271 274 270 264 265 256 245 243 247 252 263 270 281 288 278 274 276 278 279 282 280 277 266 254 241 236 237 236 230 231 221 211 213 213 205 201 200 192 191 192 199 205
225 227 250 269 284 285 262 250 237 237 236 242 252 267 287 282 274 271 272 274 275 279 279 271 257 248 243 236 228 230 229 216 209 210 212 206 200 195 199 192 189 197 201 205
223 232 242 261 267 246 261 297 237 238 247 247 260 275 282 284 282 273 269 272 274 278 277 271 260 253 249 239 227 226 217 202 199 202 207 206 201 200 200 198 199 207 211 212
220 218 226 233 254 266 279 276 240 235 260 264 263 277 294 310 296 276 265 266 269 274 275 270 256 246 241 228 214 204 201 197 197 206 214 215 210 203 202 207 214 212 212 217
215 220 227 236 250 256 272 314 299 233 262 297 279 282 293 301 284 288 301 279 278 281 280 273 253 233 224 217 194 191 198 197 208 219 225 220 214 209 212 213 214 215 213 218
206 216 227 239 248 261 281 337 139 233 293 328 297 288 286 274 276 303 305 289 282 281 282 270 221 211 211 192 186 196 205 215 217 209 208 214 216 218 220 217 211 208 207 211
218 217 225 232 242 253 216 179 231 282 318 314 306 301 290 286 294 300 296 290 286 284 280 250 214 213 195 180 184 199 218 217 184 172 177 195 212 210 210 207 213 209 201 212
227 229 238 231 248 288 253 261 280 296 298 299 301 302 294 292 293 294 291 284 278 268 255 235 210 196 187 192 196 203 220 176 157 157 168 182 188 191 200 204 207 219 220 225
247 255 250 260 266 277 277 279 286 291 291 295 293 293 290 288 289 289 286 276 266 259 243 224 199 201 208 212 217 209 180 157 156 165 171 172 178 167 164 199 216 228 236 240
261 251 257 264 274 287 278 281 288 291 290 288 289 288 284 282 282 280 276 264 256 253 250 229 216 216 218 205 210 194 169 155 158 167 178 204 240 234 264 291 280 261 264 262
254 252 254 264 276 279 285 290 289 288 286 283 284 286 282 273 273 273 268 257 247 244 237 229 227 222 215 197 198 191 179 169 162 174 197 228 253 286 292 291 321 327 283 294
Height
1518 1517 1514 1513 1515 1514 1513 1513 1512 1514 1518 1518 1513 1508 1506 1507 1509 1508 1508 1508 1508 1507 1507 1506 1505 1504 1503 1502 1501 1500 1499 1499 1499 1499 1499 1499 1499 1499 1499 1500 1500 1501 1502 1503
1517 1515 1515 1516 1517 1517 1516 1514 1512 1514 1518 1517 1510 1505 1501 1502 1503 1503 1504 1504 1504 1504 1504 1503 1502 1501 1500 1500 1499 1498 1497 1496 1496 1496 1496 1497 1497 1496 1497 1497 1497 1498 1499 1500
1512 1514 1516 1517 1517 1516 1514 1512 1511 1513 1515 1515 1513 1498 1495 1496 1499 1500 1500 1501 1501 1501 1500 1500 1499 1498 1498 1497 1496 1495 1495 1494 1494 1494 1494 1494 1494 1494 1494 1495 1495 1496 1496 1497
1514 1516 1516 1515 1514 1513 1510 1512 1514 1514 1512 1506 1511 1500 1487 1491 1494 1495 1496 1497 1497 1498 1497 1497 1497 1496 1495 1494 1494 1493 1492 1492 1492 1491 1491 1491 1491 1491 1491 1492 1492 1493 1494 1494
1512 1515 1515 1513 1512 1513 1511 1514 1514 1513 1511 1509 1508 1505 1484 1489 1489 1489 1492 1493 1494 1494 1494 1494 1494 1493 1492 1492 1491 1490 1490 1490 1489 1489 1489 1489 1489 1489 1489 1489 1490 1491 1491 1492
1513 1515 1514 1512 1514 1514 1515 1515 1515 1513 1510 1506 1501 1501 1483 1482 1482 1484 1487 1489 1490 1491 1491 1492 1491 1491 1490 1489 1489 1488 1487 1487 1487 1486 1486 1486 1486 1486 1487 1487 1487 1488 1489 1490
1511 1512 1513 1513 1512 1514 1513 1510 1507 1505 1503 1494 1501 1500 1484 1478 1481 1483 1484 1486 1487 1488 1489 1489 1488 1488 1487 1486 1486 1485 1485 1484 1484 1484 1484 1484 1484 1484 1484 1484 1485 1486 1487 1488
1508 1507 1509 1511 1509 1508 1509 1506 1502 1499 1491 1487 1500 1492 1478 1480 1482 1483 1484 1485 1485 1486 1486 1486 1485 1484 1483 1483 1483 1482 1482 1482 1482 1482 1482 1482 1482 1482 1482 1483 1483 1484 1485 1485
1507 1505 1510 1510 1510 1508 1506 1505 1503 1502 1500 1496 1483 1481 1479 1479 1480 1481 1482 1482 1483 1483 1483 1483 1482 1482 1481 1480 1480 1479 1479 1479 1479 1479 1480 1480 1480 1480 1480 1481 1481 1482 1483 1483
1509 1508 1508 1510 1510 1509 1507 1504 1505 1503 1498 1488 1478 1477 1473 1474 1475 1477 1479 1480 1480 1480 1480 1480 1479 1478 1478 1478 1477 1477 1477 1476 1476 1477 1477 1477 1477 1478 1478 1479 1479 1479 1480 1481
1511 1509 1509 1509 1505 1502 1507 1507 1501 1497 1493 1488 1479 1471 1468 1470 1472 1475 1477 1478 1478 1478 1478 1477 1476 1476 1475 1475 1474 1474 1474 1474 1474 1474 1474 1475 1475 1475 1476 1476 1476 1477 1478 1478
1511 1509 1506 1504 1505 1505 1502 1500 1500 1498 1495 1491 1483 1474 1471 1472 1474 1476 1476 1476 1476 1476 1476 1475 1474 1473 1472 1472 1472 1471 1471 1471 1471 1471 1472 1472 1472 1473 1473 1474 1474 1474 1475 1476
1512 1509 1505 1499 1503 1506 1503 1502 1502 1500 1497 1491 1485 1473 1472 1474 1474 1475 1476 1475 1474 1474 1473 1472 1471 1471 1470 1469 1469 1469 1468 1468 1468 1469 1469 1469 1470 1470 1470 1471 1471 1472 1472 1473
1510 1506 1502 1495 1489 1495 1499 1499 1500 1500 1497 1487 1479 1470 1469 1471 1473 1473 1473 1473 1472 1471 1470 1469 1469 1468 1467 1467 1466 1466 1465 1465 1465 1466 1466 1467 1467 1468 1468 1468 1469 1469 1470 1471
1509 1504 1501 1497 1496 1496 1494 1493 1495 1494 1487 1483 1472 1469 1466 1468 1471 1471 1471 1470 1469 1468 1467 1466 1465 1465 1464 1464 1464 1463 1463 1462 1463 1463 1464 1464 1465 1465 1466 1466 1467 1467 1468 1468
1508 1504 1502 1500 1495 1494 1492 1487 1487 1486 1483 1479 1474 1469 1467 1468 1469 1468 1468 1467 1465 1464 1463 1462 1461 1461 1461 1461 1461 1460 1460 1460 1460 1461 1461 1462 1462 1463 1463 1464 1464 1465 1465 1465
1506 1504 1501 1494 1494 1492 1484 1477 1478 1478 1476 1474 1471 1466 1466 1466 1466 1465 1464 1463 1462 1461 1459 1458 1458 1458 1458 1458 1458 1458 1457 1457 1458 1458 1458 1459 1459 1460 1460 1461 1461 1462 1462 1463
1502 1501 1500 1496 1495 1490 1470 1472 1471 1471 1470 1470 1468 1465 1464 1463 1462 1461 1460 1459 1458 1457 1456 1455 1454 1454 1454 1454 1455 1455 1455 1455 1455 1455 1455 1456 1457 1457 1458 1458 1458 1459 1459 1460
1497 1497 1496 1493 1484 1472 1470 1471 1471 1470 1466 1465 1465 1463 1462 1461 1459 1456 1455 1455 1454 1453 1452 1452 1451 1451 1451 1451 1451 1451 1452 1452 1452 1452 1453 1453 1454 1454 1455 1455 1455 1456 1456 1457
1493 1493 1492 1489 1484 1473 1464 1467 1467 1468 1462 1461 1461 1460 1460 1459 1457 1451 1451 1450 1450 1449 1448 1448 1448 1447 1448 1448 1448 1448 1448 1449 1449 1449 1450 1451 1451 1451 1452 1452 1453 1453 1454 1454
1491 1490 1488 1483 1477 1465 1465 1467 1467 1466 1459 1459 1458 1457 1457 1456 1454 1451 1448 1447 1446 1445 1445 1444 1444 1444 1445 1445 1445 1445 1445 1446 1447 1447 1447 1448 1448 1448 1449 1449 1450 1450 1450 1451
1480 1481 1480 1478 1475 1467 1464 1465 1464 1460 1458 1457 1456 1455 1454 1452 1449 1447 1445 1444 1443 1442 1441 1441 1441 1442 1442 1442 1442 1443 1443 1444 1444 1444 1445 1445 1445 1445 1446 1446 1447 1447 1447 1447
1475 1472 1469 1468 1464 1461 1461 1461 1459 1458 1456 1455 1453 1452 1450 1448 1445 1443 1442 1440 1439 1439 1439 1439 1439 1439 1439 1440 1440 1440 1441 1441 1442 1442 1442 1442 1443 1443 1443 1444 1444 1444 1444 1444
1471 1471 1469 1466 1460 1459 1458 1457 1456 1455 1453 1451 1450 1448 1446 1444 1441 1439 1438 1437 1436 1436 1436 1436 1436 1436 1437 1437 1438 1438 1439 1439 1439 1440 1440 1440 1440 1440 1441 1441 1441 1441 1441 1441
1467 1468 1465 1460 1457 1456 1453 1453 1452 1450 1448 1446 1444 1443 1441 1439 1437 1436 1434 1434 1433 1433 1433 1433 1433 1433 1434 1435 1435 1436 1436 1436 1436 1437 1437 1438 1438 1438 1438 1438 1439 1439 1439 1439
1464 1463 1461 1454 1453 1453 1449 1448 1447 1445 1443 1441 1439 1437 1435 1435 1433 1431 1430 1430 1430 1430 1430 1430 1430 1431 1431 1431 1432 1433 1434 1434 1434 1434 1434 1435 1435 1435 1435 1435 1436 1436 1436 1436